Zurück zum Katalog

NESS

AktivWissenschaftSSO
NORAD 58020·PAYLOAD·🇫🇷 France

Gestartet Oct 9, 2023 von Guiana Space Centre

Loading…

Nächste Überflüge (nächste 24 Stunden)

TLE

AktuellSource: Space-Track

Epoche: Sep 14, 2026, 04:38 UTC

1 58020U 23155E   26257.19335703  .00013145  00000-0  41832-3 0  9999
2 58020  97.5876 345.0866 0004609 234.9663 125.1146 15.32711061162111

Verfolge NESS in Echtzeit mit AllMySat

Download on the App Store